Regional Weather Roundup
Issued by NWS Jackson, KY

Home | Current Version | Previous Version | Graphics & Text | Print | Product List | Glossary On
Versions: 1 2 3 4 5 6 7 8 9 10 11 12 13 14 15 16 17 18 19 20 21 22 23 24 25 26 27
000
ASUS43 KJKL 270310
RWRJKL

EAST KENTUCKY HOURLY WEATHER ROUNDUP
NATIONAL WEATHER SERVICE JACKSON KY
1100 PM EDT WED APR 26 2017

NOTE: "FAIR" INDICATES FEW OR NO CLOUDS BELOW 12,000 FEET WITH
NO SIGNIFICANT WEATHER AND/OR OBSTRUCTIONS TO VISIBILITY.

* THESE REPORTS ARE NOT UNDER NWS QUALITY CONTROL AND MAY NOT
  REPORT WEATHER SUCH AS PRECIPITATION AND FOG.

KYZ079-080-083-085-087-088-110-112-115-119-120-270400
...EASTERN KENTUCKY...

CITY           SKY/WX    TMP DP  RH WIND       PRES   REMARKS
JACKSON        CLEAR     72  48  42 CALM      29.68R
LONDON         CLEAR     71  55  56 S6        29.68R
SOMERSET*      CLEAR     70  54  56 S5        29.67S
MONTICELLO*    PTCLDY    72  57  59 SE10G17   29.66S
WILLIAMSBURG*  CLEAR     72  59  64 SE3       29.69R
MIDDLESBORO*   CLEAR     65  60  86 CALM      29.72R
HARLAN APT*    CLEAR     63  54  72 CALM      29.73R
PIKE CO APT*     N/A     73  49  43 S3        29.70S
BIG SANDY APT* CLEAR     74  50  42 S3        29.69R
MOREHEAD APT*  CLOUDY    73  52  46 S3        29.66S
$$

KYZ035-036-041-042-044-050-067-078-099-270400
...CENTRAL KENTUCKY...

CITY           SKY/WX    TMP DP  RH WIND       PRES   REMARKS
MT STERLING*   CLEAR     72  52  49 S8        29.65S
FLEMING/MASON* CLEAR     70  53  54 S8        29.64S
DANVILLE*      PTCLDY    70  54  56 S9        29.63S
LEXINGTON      CLEAR     71  54  54 S8        29.62S
FRANKFORT      CLOUDY    72  53  51 S8        29.58S
LOUISVILLE     PTCLDY    74  57  55 S8        29.56R
LEBANON*         N/A     73  54  49 S13G20    29.60S
GLASGOW*       CLEAR     71  56  60 S5        29.61R
BOWLING GREEN  PTCLDY    73  59  61 S8        29.59R
$$

KYZ091>093-OHZ055-061-077-WVZ005-015-034-035-042-270400
...SOUTHERN OHIO/WEST VIRGINIA...

CITY           SKY/WX    TMP DP  RH WIND       PRES   REMARKS
COVINGTON      CLOUDY    68  52  56 SE8       29.58S
COLUMBUS       MOCLDY    72  53  51 SE5       29.62R
DAYTON         CLOUDY    72  48  42 S9        29.59F
WILMINGTON     CLOUDY    65  54  67 SE6       29.61S
HUNTINGTON     CLOUDY    68  54  60 E3        29.65R
CHARLESTON     CLEAR     64  55  72 CALM      29.68R
PINEVILLE*     CLEAR     61  55  80 MISG      29.81R
BECKLEY        CLEAR     69  56  62 SE9       29.81R
BLUEFIELD      CLEAR     66  55  67 S10       29.84R
LOGAN CO APT*    N/A     73  48  40 S5        29.72R
$$

VAZ002-007-008-TNZ017-027-036-066-071-270400
...SOUTHWEST VIRGINIA/EAST TENNESSEE...

CITY           SKY/WX    TMP DP  RH WIND       PRES   REMARKS
WISE*          CLEAR     70  52  52 S7        29.80S
JONESVILLE*      N/A     61  57  88 CALM      29.76R
ABINGDON*      CLEAR     72  56  57 S7        29.80R
BRISTOL        CLEAR     72  55  55 SE5       29.77R
MORRISTOWN*    CLEAR     68  61  77 CALM      29.73R
SEVIERVILLE*   CLEAR     64  59  82 SE3       29.72R
KNOXVILLE      CLEAR     69  59  70 SW9       29.72R
LAFOLLETTE*    CLEAR     72  57  60 VRB7G14   29.73R
OAK RIDGE      CLEAR     71  58  63 W3        29.74R
CROSSVILLE     CLEAR     70  55  59 S8        29.73S
NASHVILLE      CLOUDY    74  58  57 S20G25    29.60R
$$

...KEY TO REMARKS...
VSB - VISIBILITY IN MILES
WCI - WIND CHILL INDEX
HX  - HEAT INDEX

$$




USA.gov is the U.S. government's official web portal to all federal, state and local government web resources and services.